This demonstration page uses our WeatherBlox Daily Observations layout. Learn more.

Left ArrowRight Arrow

Hourly Observations for April 16, 2022

Temp ( °F °C ) Dew Point ( °F °C ) Humidity (%) Winds ( mph kmh ) Pressure ( in mb ) Visibility ( mi km ) Precip ( " mm )
12:52 am 00:52 Mostly Clear 50 10 48 8.9 93 93 N 12 19 29.95 1014 10 16 0.00 0.00
1:52 am 01:52 Mostly Clear 50 10 47 8.3 89 89 NNE 12 19 29.97 1015 10 16 0.00 0.00
2:52 am 02:52 Mostly Clear 49 9.4 46 7.8 90 90 NE 12 19 29.94 1014 10 16 0.00 0.00
3:52 am 03:52 Cloudy 48 8.9 42 5.6 80 80 NNE 16 26 29.99 1016 10 16 0.00 0.00
4:52 am 04:52 Cloudy 47 8.3 35 1.7 63 63 NNE 18 30 30.05 1018 10 16 0.00 0.00
5:52 am 05:52 Cloudy 45 7.2 33 0.6 63 63 NNE 16 26 30.06 1018 10 16 0.00 0.00
6:52 am 06:52 Mostly Cloudy 44 6.7 29 -1.7 55 55 NE 17 28 30.06 1018 10 16 0.00 0.00
7:52 am 07:52 Partly Cloudy 44 6.7 26 -3.3 49 49 NE 13 20 30.12 1020 10 16 0.00 0.00
8:52 am 08:52 Cloudy 44 6.7 25 -3.9 47 47 NE 16 26 30.14 1021 10 16 0.00 0.00
9:52 am 09:52 Cloudy 45 7.2 26 -3.3 48 48 NE 18 30 30.15 1021 10 16 0.00 0.00
10:52 am 10:52 Mostly Cloudy 47 8.3 26 -3.3 44 44 NE 15 24 30.17 1022 10 16 0.00 0.00
11:52 am 11:52 Mostly Cloudy 51 10.6 29 -1.7 43 43 NE 18 30 30.16 1021 10 16 0.00 0.00
12:52 pm 12:52 Cloudy 53 11.7 30 -1.1 41 41 NNE 15 24 30.16 1021 10 16 0.00 0.00
1:52 pm 13:52 Mostly Cloudy 55 12.8 31 -0.6 40 40 NNE 15 24 30.15 1021 10 16 0.00 0.00
2:52 pm 14:52 Cloudy 57 13.9 33 0.6 41 41 NNE 15 24 30.14 1021 10 16 0.00 0.00
3:52 pm 15:52 Mostly Cloudy 58 14.4 32 0 38 38 NE 13 20 30.11 1020 10 16 0.00 0.00
4:52 pm 16:52 Cloudy 58 14.4 32 0 38 38 NNE 16 26 30.10 1019 10 16 0.00 0.00
5:52 pm 17:52 Cloudy 57 13.9 30 -1.1 36 36 NE 13 20 30.09 1019 10 16 0.00 0.00
6:52 pm 18:52 Cloudy 57 13.9 29 -1.7 34 34 NE 13 20 30.09 1019 10 16 0.00 0.00
7:52 pm 19:52 Cloudy 56 13.3 30 -1.1 37 37 ENE 10 17 30.09 1019 10 16 0.00 0.00
8:52 pm 20:52 Cloudy 55 12.8 30 -1.1 38 38 ENE 12 19 30.11 1020 10 16 0.00 0.00
9:52 pm 21:52 Cloudy 54 12.2 30 -1.1 40 40 ENE 12 19 30.12 1020 10 16 0.00 0.00
10:52 pm 22:52 Cloudy 53 11.7 30 -1.1 41 41 ENE 13 20 30.11 1020 10 16 0.00 0.00
11:52 pm 23:52 Cloudy 51 10.6 30 -1.1 44 44 ENE 16 26 30.09 1019 10 16 0.00 0.00

Powered by AerisWeather